Date,TemperatureHighF,TemperatureAvgF,TemperatureLowF,DewpointHighF,DewpointAvgF,DewpointLowF,HumidityHigh,HumidityAvg,HumidityLow,PressureMaxIn,PressureMinIn,WindSpeedMaxMPH,WindSpeedAvgMPH,GustSpeedMaxMPH,PrecipitationSumIn
2013-4-1,63.0,52.6,46.0,57.0,50.0,45.0,98,92,75,30.05,29.95,4,1,9,0.32
2013-4-2,70.0,53.7,44.0,58.0,48.6,43.0,98,85,55,30.08,29.98,6,1,12,0.15
2013-4-3,76.0,55.5,41.0,59.0,48.5,40.0,98,80,51,30.03,29.88,5,1,12,0.20
2013-4-4,57.0,51.6,46.0,55.0,49.9,45.0,97,94,78,30.01,29.87,6,1,13,0.93
2013-4-5,61.0,53.2,49.0,55.0,50.5,47.0,98,91,76,30.08,30.01,5,2,12,0.10
2013-4-6,67.0,54.4,48.0,57.0,50.1,47.0,97,87,60,30.09,30.00,5,2,14,0.02
2013-4-7,61.0,51.9,46.0,56.0,48.4,42.0,97,89,70,30.06,29.70,9,3,20,0.09
2013-4-8,67.0,50.9,39.0,44.0,37.1,24.0,93,64,21,29.96,29.68,10,5,23,0.02
2013-4-9,74.0,55.7,39.0,45.0,36.0,22.0,91,57,14,30.03,29.96,8,2,19,0.00
2013-4-10,84.0,63.3,49.0,56.0,47.3,40.0,81,58,28,30.08,29.92,7,2,18,0.00
2013-4-11,74.0,58.3,44.0,50.0,45.5,41.0,92,66,30,29.94,29.73,6,2,16,0.00
2013-4-12,77.0,56.7,41.0,53.0,45.1,39.0,95,69,37,29.80,29.71,6,2,14,1.39
2013-4-13,74.0,57.0,45.0,50.0,42.8,37.0,84,62,39,29.79,29.70,7,3,18,0.00
2013-4-14,70.0,52.9,40.0,46.0,38.6,33.0,83,61,30,29.82,29.73,13,5,35,0.00
2013-4-15,60.0,48.0,38.0,42.0,36.1,31.0,93,66,36,29.86,29.74,11,4,25,0.00
2013-4-16,67.0,51.3,34.0,35.0,27.8,21.0,85,46,19,30.09,29.86,10,3,19,0.00
2013-4-17,68.0,55.7,45.0,36.0,27.4,20.0,64,37,17,30.18,30.08,8,3,18,0.00
2013-4-18,78.0,60.4,44.0,43.0,36.5,27.0,72,44,22,30.16,30.07,5,2,14,0.00
2013-4-19,80.0,62.4,47.0,56.0,47.0,41.0,85,60,32,30.11,29.96,9,3,19,0.00
2013-4-20,82.0,62.1,45.0,49.0,42.9,35.0,83,55,20,30.01,29.87,7,2,13,0.00
2013-4-21,86.0,65.0,46.0,52.0,45.3,39.0,87,55,21,29.93,29.83,7,2,13,3.15
2013-4-22,89.0,69.6,53.0,51.0,39.9,16.0,76,42,7,29.85,29.74,5,2,17,0.00
2013-4-23,85.0,69.0,48.0,47.0,27.6,12.0,78,26,10,29.81,29.72,13,4,29,0.00
2013-4-24,74.0,54.7,40.0,51.0,43.1,28.0,94,69,26,29.84,29.70,7,3,14,0.00
2013-4-25,68.0,52.4,45.0,52.0,45.8,42.0,93,80,55,30.01,29.84,6,2,13,0.00
2013-4-26,77.0,56.1,43.0,56.0,48.3,41.0,97,79,45,30.12,30.01,5,2,11,0.00
2013-4-27,83.0,59.3,42.0,57.0,48.5,41.0,97,74,32,30.11,29.96,5,1,10,0.00
2013-4-28,88.0,67.1,48.0,58.0,51.1,43.0,91,61,33,29.95,29.78,4,2,12,0.00
2013-4-29,90.0,70.2,54.0,57.0,49.8,46.0,75,53,24,29.80,29.66,6,2,14,0.00
2013-4-30,85.0,65.5,46.0,47.0,32.4,4.0,87,43,5,29.79,29.67,10,2,17,0.00